Cloud_Cover
5 8 4 0 4 12 31 94 100 100 100 100 100 100 89 54 87 32 43 64 25 41 65 39 10 5 5 5 5 5 5 5 5 75 100 100 100 100 100 100 98 89 75 85 90 100 99
2 5 19 2 0 3 4 15 33 88 98 100 100 100 100 100 56 13 100 100 56 96 100 55 46 5 5 10 5 5 5 5 6 30 18 100 98 91 100 100 84 90 100 97 100 99 92
0 0 5 5 22 2 0 0 4 5 37 64 100 100 100 100 100 100 78 85 96 100 78 73 92 56 59 28 5 5 5 7 19 11 5 46 27 40 91 82 69 90 81 100 94 99 99
0 0 0 0 2 5 2 0 0 0 4 5 6 11 76 32 60 89 100 100 100 61 55 48 44 46 57 66 12 5 5 8 26 70 10 69 100 100 100 98 63 70 89 100 100 100 100
0 0 0 0 0 0 2 4 0 0 0 0 0 4 5 5 10 37 61 9 5 5 8 83 64 64 74 66 31 12 5 16 35 32 40 12 6 48 100 88 99 87 100 96 38 65 92
5 0 0 0 0 0 0 0 4 5 0 0 0 0 0 0 1 4 5 5 6 22 7 43 90 56 39 21 5 11 7 5 5 10 22 24 88 94 98 77 52 60 70 90 96 85 84
30 5 0 0 0 0 0 2 0 0 0 0 0 0 0 0 0 0 2 1 5 5 5 5 50 83 13 5 5 22 57 9 7 6 5 5 31 96 38 15 6 5 29 100 100 73 88
6 7 26 5 0 0 0 0 0 0 0 0 0 0 0 0 0 0 0 0 70 75 3 0 4 4 5 5 7 5 5 31 20 11 5 17 5 5 35 96 72 29 10 100 100 62 34
3 5 6 5 5 2 0 0 0 0 0 0 0 0 0 0 0 0 0 0 0 3 1 0 0 0 0 0 1 2 3 3 1 3 8 16 16 5 6 5 5 5 13 67 26 81 46
34 5 5 5 5 45 11 0 0 0 0 0 0 0 0 0 0 0 0 0 0 0 0 0 0 0 0 0 0 0 0 0 0 0 0 0 0 0 0 1 4 1 3 34 94 88 97
100 87 3 5 5 5 5 5 5 1 5 5 0 0 0 0 0 0 0 0 0 0 0 0 0 0 0 0 0 0 0 0 0 0 0 0 0 0 0 0 0 0 1 4 5 32 61
93 91 5 3 1 0 1 5 6 9 5 5 5 3 1 0 0 0 0 0 0 0 0 0 0 0 0 0 0 0 0 0 0 0 0 0 0 0 0 0 0 3 2 5 5 5 52
100 93 5 5 0 0 0 0 0 5 5 5 5 0 0 0 0 0 0 0 0 0 0 0 0 0 0 0 0 0 0 0 0 0 0 0 0 0 0 0 0 0 5 5 4 0 17
100 100 80 5 5 4 2 0 0 0 0 0 1 0 0 0 0 0 0 0 0 0 0 0 0 0 0 0 0 0 0 0 0 0 0 0 0 0 0 0 0 0 0 1 5 1 0
97 100 100 59 6 5 5 5 5 1 0 4 0 0 0 0 3 0 0 87 0 0 0 0 0 0 0 0 0 0 0 0 0 0 0 0 0 0 0 0 0 0 0 0 0 0 0
100 95 100 100 100 46 5 5 5 5 5 1 6 0 3 10 5 2 2 2 5 4 5 1 3 2 0 0 0 0 0 0 0 0 0 0 0 0 0 0 0 0 0 0 0 0 2
100 100 100 100 100 100 100 98 83 21 25 16 5 3 38 0 5 5 5 4 5 5 3 3 5 5 2 1 0 0 0 0 1 2 0 0 0 0 0 0 0 0 0 0 0 0 0
100 100 100 83 100 96 100 100 97 100 100 96 71 5 8 5 4 5 5 5 5 5 5 5 3 5 3 2 4 3 3 5 2 22 5 2 0 0 0 0 0 0 0 0 0 0 0
100 100 100 93 100 100 100 100 100 100 99 96 61 5 53 53 5 5 5 5 1 5 5 2 1 0 0 1 1 0 5 5 5 5 86 38 0 0 0 0 0 0 2 0 0 0 0
100 100 100 100 100 95 100 100 100 100 100 91 62 5 33 98 5 5 5 5 4 5 5 5 5 2 0 2 2 3 18 18 67 86 95 96 3 0 0 5 1 0 0 0 0 0 2
100 100 100 100 98 100 100 100 100 100 100 100 69 18 94 86 96 36 55 5 36 52 42 50 5 5 5 31 21 5 28 100 100 100 100 100 9 3 4 10 5 0 0 0 0 0 2
100 100 100 100 99 100 100 100 100 100 100 77 55 5 5 5 5 5 5 5 66 100 95 70 42 5 5 6 66 100 63 100 100 100 100 98 6 5 5 5 6 1 0 0 5 16 5
93 100 100 100 100 100 100 100 100 100 100 100 83 64 5 5 5 5 5 9 5 92 100 82 98 53 5 31 5 97 98 97 100 100 100 100 69 5 5 100 9 0 2 0 0 5 5
100 100 100 100 100 100 100 100 100 100 100 100 88 100 67 80 32 40 5 8 100 92 16 37 5 56 79 21 67 13 18 80 100 100 100 100 100 30 11 100 22 39 82 0 0 4 37
100 100 100 100 100 100 100 100 100 100 100 100 100 99 88 77 74 89 5 24 100 100 97 88 35 9 5 5 81 39 77 100 100 100 100 100 100 100 85 91 20 5 40 23 0 0 6
100 100 100 100 100 100 100 100 100 100 100 100 100 100 100 67 64 100 100 100 100 100 100 100 100 100 59 6 5 5 10 79 90 100 100 100 100 100 100 55 5 63 100 97 2 0 0
100 100 100 100 100 100 100 100 100 100 100 100 100 100 100 100 100 100 100 100 100 100 100 100 100 69 7 98 17 40 100 92 24 100 100 100 100 100 99 90 5 96 100 100 13 4 5
100 100 100 100 100 100 100 100 100 100 100 98 100 100 100 100 100 100 100 100 100 100 100 100 100 100 80 77 100 48 59 100 100 100 100 100 100 100 99 80 29 99 99 100 100 10 5
100 100 100 100 100 100 100 100 100 100 100 100 100 95 89 100 100 100 100 100 98 96 100 79 62 88 66 60 57 69 84 95 95 100 100 100 100 100 9 6 88 99 100 100 100 99 3